,,Stat6,,Stat2,,Stat8,,Stat9,,Stat10,,Wind1,,Wind1,
time,status,PA1M_AVG,status,PR1M_SUM,status,RH1M_AVG,status,SR1M_AVG,status,TA1M_AVG,status,W1dAve1m,status,W1sAve1m,
2004-12-19, 00:00:00,VALID,917.739,VALID,0,VALID,100,VALID,0.0169808,VALID,19.7683,VALID,101,VALID,0.250545,
2004-12-19, 00:01:01,VALID,917.732,VALID,0.2,VALID,100,VALID,0,VALID,19.7618,VALID,101,VALID,0.299293,
2004-12-19, 00:02:00,VALID,917.708,VALID,0,VALID,100,VALID,0.0339617,VALID,19.7621,VALID,101,VALID,0.285442,
2004-12-19, 00:03:00,VALID,917.696,VALID,0,VALID,100,VALID,-0.0849042,VALID,19.7569,VALID,101,VALID,0.365552,
2004-12-19, 00:04:00,VALID,917.69,VALID,0,VALID,100,VALID,-0.101885,VALID,19.7442,VALID,101,VALID,0.34189,
2004-12-19, 00:05:01,VALID,917.684,VALID,0,VALID,100,VALID,-0.0679233,VALID,19.7671,VALID,111,VALID,0.408482,
2004-12-19, 00:06:01,VALID,917.675,VALID,0,VALID,100,VALID,-0.0849042,VALID,19.7541,VALID,113,VALID,0.416424,
2004-12-19, 00:07:01,VALID,917.665,VALID,0,VALID,100,VALID,-0.101885,VALID,19.7546,VALID,113,VALID,0.165305,
2004-12-19, 00:08:01,VALID,917.652,VALID,0,VALID,100,VALID,-0.101885,VALID,19.7509,VALID,114,VALID,0.414249,
2004-12-19, 00:09:01,VALID,917.652,VALID,0,VALID,100,VALID,-0.0679233,VALID,19.7576,VALID,122,VALID,0.601017,
2004-12-19, 00:10:00,VALID,917.646,VALID,0,VALID,100,VALID,-0.0679233,VALID,19.7477,VALID,134,VALID,0.522837,
2004-12-19, 00:11:00,VALID,917.644,VALID,0,VALID,100,VALID,-0.101885,VALID,19.7442,VALID,127,VALID,0.688643,
2004-12-19, 00:12:00,VALID,917.633,VALID,0,VALID,100,VALID,-0.0849042,VALID,19.741,VALID,104,VALID,0.398983,
2004-12-19, 00:13:01,VALID,917.618,VALID,0,VALID,100,VALID,-0.0169808,VALID,19.7375,VALID,111,VALID,0.540483,
2004-12-19, 00:14:00,VALID,917.61,VALID,0,VALID,100,VALID,-0.101885,VALID,19.7345,VALID,121,VALID,0.599085,
2004-12-19, 00:15:00,VALID,917.6,VALID,0,VALID,100,VALID,-0.0169808,VALID,19.7281,VALID,122,VALID,0.803089,
2004-12-19, 00:16:01,VALID,917.6,VALID,0,VALID,100,VALID,-0.0679233,VALID,19.7281,VALID,128,VALID,0.888719,
2004-12-19, 00:17:01,VALID,917.605,VALID,0,VALID,100,VALID,-0.101885,VALID,19.7315,VALID,131,VALID,0.823038,
2004-12-19, 00:18:01,VALID,917.624,VALID,0,VALID,100,VALID,-0.101885,VALID,19.7315,VALID,135,VALID,0.90407,
2004-12-19, 00:19:00,VALID,917.633,VALID,0,VALID,100,VALID,-0.0849042,VALID,19.7318,VALID,155,VALID,0.48266,
2004-12-19, 00:20:01,VALID,917.64,VALID,0.2,VALID,100,VALID,-0.0849042,VALID,19.731,VALID,153,VALID,0.604539,
2004-12-19, 00:21:00,VALID,917.645,VALID,0,VALID,100,VALID,-0.0849042,VALID,19.7417,VALID,157,VALID,0.533984,
2004-12-19, 00:22:01,VALID,917.649,VALID,0,VALID,100,VALID,-0.101885,VALID,19.7477,VALID,145,VALID,0.608865,
2004-12-19, 00:23:00,VALID,917.654,VALID,0,VALID,100,VALID,-0.0679233,VALID,19.7641,VALID,169,VALID,0.492001,
2004-12-19, 00:24:00,VALID,917.64,VALID,0,VALID,100,VALID,-0.101885,VALID,19.7636,VALID,164,VALID,0.496484,
2004-12-19, 00:25:01,VALID,917.633,VALID,0,VALID,100,VALID,-0.0509425,VALID,19.7862,VALID,151,VALID,0.298781,
2004-12-19, 00:26:01,VALID,917.635,VALID,0,VALID,100,VALID,-0.101885,VALID,19.7961,VALID,151,VALID,0.288715,
2004-12-19, 00:27:00,VALID,917.644,VALID,0,VALID,100,VALID,-0.0849042,VALID,19.8053,VALID,144,VALID,0.302604,
2004-12-19, 00:28:00,VALID,917.65,VALID,0,VALID,100,VALID,-0.0849042,VALID,19.8118,VALID,144,VALID,0.0871094,
2004-12-19, 00:29:00,VALID,917.63,VALID,0,VALID,100,VALID,-0.0849042,VALID,19.8252,VALID,143,VALID,0.540502,
2004-12-19, 00:30:00,VALID,917.621,VALID,0,VALID,100,VALID,-0.101885,VALID,19.8376,VALID,142,VALID,0.745139,
2004-12-19, 00:31:00,VALID,917.61,VALID,0,VALID,100,VALID,-0.0849042,VALID,19.8476,VALID,113,VALID,0.392361,
2004-12-19, 00:32:00,VALID,917.599,VALID,0,VALID,100,VALID,-0.0679233,VALID,19.8704,VALID,110,VALID,0.629954,
2004-12-19, 00:33:01,VALID,917.576,VALID,0,VALID,100,VALID,0.0169808,VALID,19.8592,VALID,119,VALID,0.457122,
2004-12-19, 00:34:00,VALID,917.566,VALID,0,VALID,100,VALID,0.0169808,VALID,19.8726,VALID,120,VALID,0.644431,
2004-12-19, 00:35:00,VALID,917.548,VALID,0,VALID,100,VALID,0,VALID,19.8657,VALID,145,VALID,0.45277,
2004-12-19, 00:36:00,VALID,917.546,VALID,0,VALID,100,VALID,0.0509425,VALID,19.8557,VALID,127,VALID,0.506114,
2004-12-19, 00:37:00,VALID,917.54,VALID,0,VALID,100,VALID,0.0169808,VALID,19.8654,VALID,147,VALID,0.471875,
2004-12-19, 00:38:00,VALID,917.54,VALID,0,VALID,100,VALID,0,VALID,19.8625,VALID,170,VALID,0.0555959,
2004-12-19, 00:39:00,VALID,917.537,VALID,0,VALID,100,VALID,0.0169808,VALID,19.8659,VALID,170,VALID,0.000952744,
2004-12-19, 00:40:01,VALID,917.52,VALID,0,VALID,100,VALID,0.0169808,VALID,19.8592,VALID,170,VALID,0.0234375,
2004-12-19, 00:41:00,VALID,917.5,VALID,0,VALID,100,VALID,0.0169808,VALID,19.8458,VALID,170,VALID,0.161458,
2004-12-19, 00:42:00,VALID,917.501,VALID,0,VALID,100,VALID,0.0339617,VALID,19.8393,VALID,165,VALID,0.345703,
2004-12-19, 00:43:01,VALID,917.489,VALID,0,VALID,100,VALID,0.0339617,VALID,19.8366,VALID,161,VALID,0.191497,
2004-12-19, 00:44:00,VALID,917.469,VALID,0,VALID,100,VALID,0,VALID,19.8272,VALID,156,VALID,0.070503,
2004-12-19, 00:45:00,VALID,917.462,VALID,0,VALID,100,VALID,0,VALID,19.8043,VALID,156,VALID,0.000679348,
2004-12-19, 00:46:00,VALID,917.453,VALID,0,VALID,100,VALID,0.0169808,VALID,19.8046,VALID,156,VALID,0.000363372,
2004-12-19, 00:47:00,VALID,917.435,VALID,0,VALID,100,VALID,0.0169808,VALID,19.7979,VALID,156,VALID,0.143601,
2004-12-19, 00:48:01,VALID,917.433,VALID,0,VALID,100,VALID,0,VALID,19.7782,VALID,156,VALID,0.181641,
2004-12-19, 00:49:01,VALID,917.431,VALID,0,VALID,100,VALID,0.0169808,VALID,19.7723,VALID,156,VALID,0.262536,
2004-12-19, 00:50:01,VALID,917.427,VALID,0,VALID,100,VALID,0.0169808,VALID,19.7591,VALID,157,VALID,0.0801711,
2004-12-19, 00:51:01,VALID,917.433,VALID,0,VALID,100,VALID,0.0169808,VALID,19.7556,VALID,161,VALID,0.268532,
2004-12-19, 00:52:01,VALID,917.431,VALID,0,VALID,100,VALID,0.0169808,VALID,19.7459,VALID,165,VALID,0.337941,
2004-12-19, 00:53:01,VALID,917.419,VALID,0,VALID,100,VALID,0.0169808,VALID,19.7623,VALID,166,VALID,0.404772,
2004-12-19, 00:54:01,VALID,917.402,VALID,0,VALID,100,VALID,0.0169808,VALID,19.7559,VALID,166,VALID,0.222929,
2004-12-19, 00:55:01,VALID,917.395,VALID,0,VALID,100,VALID,0,VALID,19.7626,VALID,166,VALID,0.27689,
2004-12-19, 00:56:00,VALID,917.387,VALID,0,VALID,100,VALID,0,VALID,19.7631,VALID,148,VALID,0.691067,
2004-12-19, 00:57:01,VALID,917.379,VALID,0,VALID,100,VALID,-0.0169808,VALID,19.7363,VALID,181,VALID,0.4734,
2004-12-19, 00:58:01,VALID,917.391,VALID,0,VALID,100,VALID,0.0169808,VALID,19.7372,VALID,200,VALID,0.379687,
2004-12-19, 00:59:00,VALID,917.4,VALID,0,VALID,100,VALID,0.0169808,VALID,19.7169,VALID,192,VALID,0.715774,
2004-12-19, 01:00:01,VALID,917.425,VALID,0,VALID,100,VALID,0,VALID,19.7141,VALID,170,VALID,0.523996,
2004-12-19, 01:01:01,VALID,917.417,VALID,0,VALID,100,VALID,0.0169808,VALID,19.701,VALID,170,VALID,0.470796,
2004-12-19, 01:02:01,VALID,917.421,VALID,0,VALID,100,VALID,0,VALID,19.6814,VALID,170,VALID,0.376953,
2004-12-19, 01:03:01,VALID,917.406,VALID,0,VALID,100,VALID,0,VALID,19.6689,VALID,166,VALID,0.275618,
2004-12-19, 01:04:01,VALID,917.398,VALID,0,VALID,100,VALID,0,VALID,19.6364,VALID,156,VALID,0.59282,
2004-12-19, 01:05:01,VALID,917.388,VALID,0,VALID,100,VALID,0,VALID,19.6202,VALID,148,VALID,0.982422,
2004-12-19, 01:06:01,VALID,917.376,VALID,0,VALID,100,VALID,0.0169808,VALID,19.5783,VALID,137,VALID,0.941315,
2004-12-19, 01:07:01,VALID,917.357,VALID,0,VALID,100,VALID,0.0339617,VALID,19.5683,VALID,129,VALID,0.511914,
2004-12-19, 01:08:01,VALID,917.351,VALID,0,VALID,100,VALID,0.0509425,VALID,19.5554,VALID,103,VALID,0.431516,
2004-12-19, 01:09:01,VALID,917.338,VALID,0,VALID,100,VALID,0.0169808,VALID,19.5589,VALID,98,VALID,0.468568,
2004-12-19, 01:10:01,VALID,917.341,VALID,0,VALID,100,VALID,0.0169808,VALID,19.5427,VALID,74,VALID,0.418786,
2004-12-19, 01:11:01,VALID,917.327,VALID,0,VALID,100,VALID,0.0339617,VALID,19.5398,VALID,73,VALID,0.183503,
2004-12-19, 01:12:01,VALID,917.333,VALID,0,VALID,100,VALID,0.0339617,VALID,19.5072,VALID,73,VALID,0.134766,
2004-12-19, 01:13:01,VALID,917.338,VALID,0,VALID,100,VALID,0,VALID,19.5005,VALID,68,VALID,0.482329,
2004-12-19, 01:14:01,VALID,917.324,VALID,0,VALID,100,VALID,0.0169808,VALID,19.4779,VALID,53,VALID,0.590402,
2004-12-19, 01:15:01,VALID,917.317,VALID,0.2,VALID,100,VALID,0.0339617,VALID,19.4454,VALID,49,VALID,0.43109,
2004-12-19, 01:16:01,VALID,917.31,VALID,0,VALID,100,VALID,0.0169808,VALID,19.4198,VALID,49,VALID,0.373224,
2004-12-19, 01:17:01,VALID,917.283,VALID,0,VALID,100,VALID,0,VALID,19.4103,VALID,49,VALID,0.264258,
2004-12-19, 01:18:01,VALID,917.271,VALID,0,VALID,100,VALID,0,VALID,19.4078,VALID,50,VALID,0.242932,
2004-12-19, 01:19:01,VALID,917.255,VALID,0,VALID,100,VALID,0,VALID,19.3979,VALID,52,VALID,0.314453,
2004-12-19, 01:20:01,VALID,917.229,VALID,0,VALID,100,VALID,0.0169808,VALID,19.3753,VALID,89,VALID,0.444404,
2004-12-19, 01:21:01,VALID,917.205,VALID,0,VALID,100,VALID,0.0169808,VALID,19.3755,VALID,149,VALID,0.829368,
2004-12-19, 01:22:01,VALID,917.18,VALID,0,VALID,100,VALID,0,VALID,19.3398,VALID,143,VALID,0.875,
2004-12-19, 01:23:01,VALID,917.161,VALID,0,VALID,100,VALID,0.0509425,VALID,19.3522,VALID,158,VALID,1.21298,
2004-12-19, 01:24:01,VALID,917.15,VALID,0,VALID,100,VALID,0.0169808,VALID,19.3492,VALID,162,VALID,1.01495,
2004-12-19, 01:25:01,VALID,917.14,VALID,0,VALID,100,VALID,0,VALID,19.3592,VALID,148,VALID,1.06377,
2004-12-19, 01:26:01,VALID,917.13,VALID,0,VALID,100,VALID,0.0169808,VALID,19.3755,VALID,163,VALID,1.50353,
2004-12-19, 01:27:01,VALID,917.123,VALID,0,VALID,100,VALID,0,VALID,19.3855,VALID,154,VALID,1.20045,
2004-12-19, 01:28:01,VALID,917.093,VALID,0,VALID,100,VALID,0.0169808,VALID,19.3815,VALID,156,VALID,1.19779,
2004-12-19, 01:29:01,VALID,917.067,VALID,0,VALID,100,VALID,0.0169808,VALID,19.3785,VALID,161,VALID,1.60156,
2004-12-19, 01:30:01,VALID,917.053,VALID,0,VALID,100,VALID,0.0169808,VALID,19.3691,VALID,148,VALID,1.10975,
2004-12-19, 01:31:01,VALID,917.036,VALID,0,VALID,100,VALID,0.0339617,VALID,19.3589,VALID,148,VALID,1.20781,
2004-12-19, 01:32:01,VALID,917.021,VALID,0,VALID,100,VALID,0.0339617,VALID,19.3532,VALID,150,VALID,1.1108,
2004-12-19, 01:33:01,VALID,917.001,VALID,0,VALID,100,VALID,0.0169808,VALID,19.3207,VALID,134,VALID,1.14974,
2004-12-19, 01:34:00,VALID,916.983,VALID,0,VALID,100,VALID,0.0169808,VALID,19.3043,VALID,157,VALID,1.35847,
2004-12-19, 01:35:00,VALID,916.974,VALID,0,VALID,100,VALID,0,VALID,19.2983,VALID,151,VALID,1.4435,
2004-12-19, 01:36:00,VALID,916.955,VALID,0,VALID,100,VALID,0,VALID,19.2918,VALID,153,VALID,1.02017,
2004-12-19, 01:37:00,VALID,916.944,VALID,0,VALID,100,VALID,0,VALID,19.2787,VALID,145,VALID,1.30523,
2004-12-19, 01:38:00,VALID,916.924,VALID,0,VALID,100,VALID,0.0169808,VALID,19.2792,VALID,142,VALID,1.05043,
2004-12-19, 01:39:00,VALID,916.912,VALID,0,VALID,100,VALID,0,VALID,19.2687,VALID,125,VALID,1.06517,
2004-12-19, 01:40:00,VALID,916.906,VALID,0,VALID,100,VALID,0.0169808,VALID,19.2625,VALID,140,VALID,1.09623,
2004-12-19, 01:41:00,VALID,916.889,VALID,0,VALID,100,VALID,0,VALID,19.2727,VALID,117,VALID,0.75142,
2004-12-19, 01:42:00,VALID,916.873,VALID,0,VALID,100,VALID,0,VALID,19.2628,VALID,137,VALID,0.854514,
2004-12-19, 01:43:00,VALID,916.863,VALID,0,VALID,100,VALID,0,VALID,19.2457,VALID,136,VALID,0.545785,
2004-12-19, 01:44:00,VALID,916.84,VALID,0,VALID,100,VALID,0,VALID,19.2595,VALID,132,VALID,0.758743,
2004-12-19, 01:45:00,VALID,916.839,VALID,0,VALID,100,VALID,-0.0169808,VALID,19.2494,VALID,110,VALID,0.484756,
2004-12-19, 01:46:00,VALID,916.833,VALID,0,VALID,100,VALID,0,VALID,19.2461,VALID,114,VALID,0.570884,
2004-12-19, 01:47:00,VALID,916.816,VALID,0,VALID,100,VALID,-0.0169808,VALID,19.2394,VALID,113,VALID,0.201522,
2004-12-19, 01:48:00,VALID,916.788,VALID,0,VALID,100,VALID,-0.0169808,VALID,19.2469,VALID,123,VALID,0.77474,
2004-12-19, 01:49:00,VALID,916.758,VALID,0,VALID,100,VALID,-0.0169808,VALID,19.2402,VALID,127,VALID,0.691406,
2004-12-19, 01:50:00,VALID,916.744,VALID,0,VALID,100,VALID,-0.0169808,VALID,19.2436,VALID,117,VALID,0.802951,
2004-12-19, 01:51:00,VALID,916.716,VALID,0,VALID,100,VALID,0,VALID,19.2339,VALID,108,VALID,0.726744,
2004-12-19, 01:52:00,VALID,916.686,VALID,0,VALID,100,VALID,0,VALID,19.2238,VALID,112,VALID,0.819741,
2004-12-19, 01:53:00,VALID,916.662,VALID,0,VALID,100,VALID,0,VALID,19.2109,VALID,131,VALID,0.644531,
2004-12-19, 01:54:00,VALID,916.648,VALID,0,VALID,100,VALID,0,VALID,19.1979,VALID,143,VALID,1.02273,
2004-12-19, 01:55:00,VALID,916.629,VALID,0,VALID,100,VALID,0,VALID,19.1786,VALID,154,VALID,0.591751,
2004-12-19, 01:56:00,VALID,916.64,VALID,0,VALID,100,VALID,0.0169808,VALID,19.195,VALID,166,VALID,0.736049,
2004-12-19, 01:57:00,VALID,916.634,VALID,0,VALID,100,VALID,0,VALID,19.218,VALID,137,VALID,0.640625,
2004-12-19, 01:58:00,VALID,916.641,VALID,0,VALID,100,VALID,0,VALID,19.2305,VALID,99,VALID,0.4641,
2004-12-19, 01:59:00,VALID,916.633,VALID,0,VALID,100,VALID,0,VALID,19.2235,VALID,62,VALID,0.946837,
2004-12-19, 02:00:00,VALID,916.628,VALID,0,VALID,100,VALID,0.0169808,VALID,19.2272,VALID,52,VALID,1.03706,
2004-12-19, 02:01:00,VALID,916.625,VALID,0,VALID,100,VALID,0,VALID,19.2111,VALID,41,VALID,1.36392,
2004-12-19, 02:02:00,VALID,916.62,VALID,0,VALID,100,VALID,0,VALID,19.1885,VALID,34,VALID,1.36414,
2004-12-19, 02:03:00,VALID,916.609,VALID,0,VALID,100,VALID,0,VALID,19.1686,VALID,34,VALID,1.39844,
2004-12-19, 02:04:00,VALID,916.589,VALID,0,VALID,100,VALID,0,VALID,19.1622,VALID,29,VALID,1.37318,
2004-12-19, 02:05:00,VALID,916.565,VALID,0,VALID,100,VALID,0,VALID,19.1594,VALID,35,VALID,1.2002,
2004-12-19, 02:06:00,VALID,916.551,VALID,0,VALID,100,VALID,0,VALID,19.1624,VALID,39,VALID,1.0127,
2004-12-19, 02:07:00,VALID,916.537,VALID,0,VALID,100,VALID,0,VALID,19.1788,VALID,33,VALID,0.761979,
2004-12-19, 02:08:00,VALID,916.512,VALID,0,VALID,100,VALID,0,VALID,19.189,VALID,36,VALID,0.801258,
2004-12-19, 02:09:00,VALID,916.496,VALID,0,VALID,100,VALID,0,VALID,19.1982,VALID,56,VALID,0.721912,
2004-12-19, 02:10:00,VALID,916.486,VALID,0,VALID,100,VALID,0,VALID,19.2014,VALID,58,VALID,0.881392,
2004-12-19, 02:11:00,VALID,916.463,VALID,0,VALID,100,VALID,0,VALID,19.2116,VALID,48,VALID,1.02344,
2004-12-19, 02:12:00,VALID,916.45,VALID,0,VALID,100,VALID,0,VALID,19.2116,VALID,38,VALID,0.766135,
2004-12-19, 02:13:00,VALID,916.442,VALID,0,VALID,100,VALID,0,VALID,19.2046,VALID,30,VALID,0.658537,
2004-12-19, 02:14:00,VALID,916.416,VALID,0,VALID,100,VALID,0,VALID,19.2143,VALID,25,VALID,0.767671,
2004-12-19, 02:15:00,VALID,916.402,VALID,0,VALID,100,VALID,-0.0169808,VALID,19.2173,VALID,18,VALID,0.155878,
2004-12-19, 02:16:00,VALID,916.385,VALID,0,VALID,100,VALID,0,VALID,19.2208,VALID,30,VALID,0.368786,
2004-12-19, 02:17:00,VALID,916.355,VALID,0,VALID,100,VALID,0,VALID,19.2143,VALID,39,VALID,0.401486,
2004-12-19, 02:18:00,VALID,916.328,VALID,0,VALID,100,VALID,0.0169808,VALID,19.218,VALID,40,VALID,0.345424,
2004-12-19, 02:19:00,VALID,916.31,VALID,0,VALID,100,VALID,0.0339617,VALID,19.1952,VALID,60,VALID,0.546148,
2004-12-19, 02:20:00,VALID,916.286,VALID,0,VALID,100,VALID,0,VALID,19.1885,VALID,90,VALID,0.748438,
2004-12-19, 02:21:00,VALID,916.267,VALID,0,VALID,100,VALID,0.0679233,VALID,19.1793,VALID,83,VALID,0.900915,
2004-12-19, 02:22:00,VALID,916.25,VALID,0,VALID,100,VALID,0.0169808,VALID,19.1719,VALID,49,VALID,0.841025,
2004-12-19, 02:23:00,VALID,916.221,VALID,0,VALID,100,VALID,0.0509425,VALID,19.1857,VALID,53,VALID,0.938772,
2004-12-19, 02:24:00,VALID,916.202,VALID,0,VALID,100,VALID,0,VALID,19.189,VALID,59,VALID,0.987262,
2004-12-19, 02:25:00,VALID,916.191,VALID,0,VALID,100,VALID,0,VALID,19.1892,VALID,62,VALID,0.813453,
2004-12-19, 02:26:00,VALID,916.176,VALID,0,VALID,100,VALID,0.0169808,VALID,19.1728,VALID,62,VALID,0.524164,
2004-12-19, 02:27:00,VALID,916.17,VALID,0,VALID,100,VALID,0.0509425,VALID,19.1726,VALID,61,VALID,0.65734,
2004-12-19, 02:28:00,VALID,916.149,VALID,0,VALID,100,VALID,0,VALID,19.1723,VALID,58,VALID,0.742378,
2004-12-19, 02:29:00,VALID,916.148,VALID,0,VALID,100,VALID,0.0509425,VALID,19.1723,VALID,56,VALID,0.688227,
2004-12-19, 02:30:00,VALID,916.131,VALID,0,VALID,100,VALID,0.0169808,VALID,19.1788,VALID,56,VALID,0.573864,
2004-12-19, 02:31:00,VALID,916.112,VALID,0,VALID,100,VALID,0.0169808,VALID,19.1823,VALID,56,VALID,0.427024,
2004-12-19, 02:32:00,VALID,916.111,VALID,0,VALID,100,VALID,0,VALID,19.1825,VALID,56,VALID,0.333651,
2004-12-19, 02:33:00,VALID,916.091,VALID,0,VALID,100,VALID,0,VALID,19.1758,VALID,56,VALID,0.29742,
2004-12-19, 02:34:00,VALID,916.09,VALID,0,VALID,100,VALID,0.0169808,VALID,19.1828,VALID,38,VALID,0.418968,
2004-12-19, 02:35:00,VALID,916.082,VALID,0,VALID,100,VALID,0,VALID,19.1723,VALID,21,VALID,0.640067,
2004-12-19, 02:36:00,VALID,916.081,VALID,0,VALID,100,VALID,0.0169808,VALID,19.1761,VALID,21,VALID,0.490371,
2004-12-19, 02:37:00,VALID,916.066,VALID,0,VALID,100,VALID,0.0849042,VALID,19.1726,VALID,23,VALID,0.502131,
2004-12-19, 02:38:00,VALID,916.056,VALID,0,VALID,100,VALID,0.0509425,VALID,19.1756,VALID,26,VALID,0.219295,
2004-12-19, 02:39:00,VALID,916.06,VALID,0,VALID,100,VALID,0.0339617,VALID,19.179,VALID,41,VALID,0.394176,
2004-12-19, 02:40:00,VALID,916.041,VALID,0,VALID,100,VALID,0.0339617,VALID,19.15,VALID,48,VALID,0.534624,
2004-12-19, 02:41:00,VALID,916.036,VALID,0,VALID,100,VALID,0.0169808,VALID,19.1408,VALID,52,VALID,0.296113,
2004-12-19, 02:42:00,VALID,916.034,VALID,0,VALID,100,VALID,0.0679233,VALID,19.1334,VALID,52,VALID,0.164063,
2004-12-19, 02:43:00,VALID,916.019,VALID,0,VALID,100,VALID,0.0339617,VALID,19.1338,VALID,52,VALID,0,
2004-12-19, 02:44:00,VALID,916.004,VALID,0,VALID,100,VALID,0.0169808,VALID,19.1306,VALID,52,VALID,0.000545058,
2004-12-19, 02:45:00,VALID,915.98,VALID,0,VALID,100,VALID,0.0169808,VALID,19.1373,VALID,53,VALID,0.0850291,
2004-12-19, 02:46:00,VALID,915.973,VALID,0,VALID,100,VALID,0.0169808,VALID,19.1204,VALID,61,VALID,0.305959,
2004-12-19, 02:47:00,VALID,915.958,VALID,0,VALID,100,VALID,0.0509425,VALID,19.1207,VALID,83,VALID,0.512607,
2004-12-19, 02:48:00,VALID,915.937,VALID,0,VALID,100,VALID,-0.0339617,VALID,19.1191,VALID,102,VALID,0.555233,
2004-12-19, 02:49:00,VALID,915.924,VALID,0,VALID,100,VALID,-0.0169808,VALID,19.1221,VALID,116,VALID,0.69077,
2004-12-19, 02:50:00,VALID,915.898,VALID,0,VALID,100,VALID,-0.0849042,VALID,19.1221,VALID,115,VALID,0.706287,
2004-12-19, 02:51:00,VALID,915.888,VALID,0,VALID,100,VALID,-0.0849042,VALID,19.1224,VALID,121,VALID,0.50218,
2004-12-19, 02:52:00,VALID,915.873,VALID,0,VALID,100,VALID,-0.0679233,VALID,19.139,VALID,117,VALID,0.436523,
2004-12-19, 02:53:00,VALID,915.866,VALID,0,VALID,100,VALID,-0.0679233,VALID,19.1318,VALID,104,VALID,0.608467,
2004-12-19, 02:54:00,VALID,915.837,VALID,0,VALID,100,VALID,-0.0849042,VALID,19.142,VALID,126,VALID,0.734003,
2004-12-19, 02:55:00,VALID,915.829,VALID,0,VALID,100,VALID,-0.0679233,VALID,19.1452,VALID,126,VALID,0.792225,
2004-12-19, 02:56:00,VALID,915.808,VALID,0,VALID,100,VALID,-0.0849042,VALID,19.1385,VALID,120,VALID,0.898065,
2004-12-19, 02:57:00,VALID,915.8,VALID,0,VALID,100,VALID,-0.0509425,VALID,19.1353,VALID,128,VALID,0.933789,
2004-12-19, 02:58:00,VALID,915.774,VALID,0,VALID,100,VALID,-0.0169808,VALID,19.145,VALID,125,VALID,0.602896,
2004-12-19, 02:59:00,VALID,915.763,VALID,0,VALID,100,VALID,-0.0169808,VALID,19.1413,VALID,116,VALID,0.641667,
2004-12-19, 03:00:00,VALID,915.766,VALID,0,VALID,100,VALID,-0.0679233,VALID,19.1417,VALID,142,VALID,0.484375,
2004-12-19, 03:01:00,VALID,915.756,VALID,0,VALID,100,VALID,-0.0509425,VALID,19.1445,VALID,124,VALID,0.753239,
2004-12-19, 03:02:00,VALID,915.763,VALID,0,VALID,100,VALID,-0.0339617,VALID,19.1544,VALID,124,VALID,0.568266,
2004-12-19, 03:03:00,VALID,915.746,VALID,0,VALID,100,VALID,-0.0679233,VALID,19.1547,VALID,160,VALID,1.05134,
2004-12-19, 03:04:00,VALID,915.748,VALID,0,VALID,100,VALID,-0.0169808,VALID,19.1512,VALID,162,VALID,1.21726,
2004-12-19, 03:05:00,VALID,915.756,VALID,0,VALID,100,VALID,-0.0339617,VALID,19.1547,VALID,169,VALID,1.00521,
2004-12-19, 03:06:00,VALID,915.747,VALID,0,VALID,100,VALID,-0.0509425,VALID,19.1477,VALID,162,VALID,0.914453,
2004-12-19, 03:07:00,VALID,915.741,VALID,0,VALID,100,VALID,-0.0679233,VALID,19.1581,VALID,151,VALID,0.592076,
2004-12-19, 03:08:00,VALID,915.75,VALID,0.2,VALID,100,VALID,-0.0509425,VALID,19.1547,VALID,157,VALID,0.730097,
2004-12-19, 03:09:00,VALID,915.73,VALID,0,VALID,100,VALID,-0.0509425,VALID,19.1611,VALID,208,VALID,0.54375,
2004-12-19, 03:10:00,VALID,915.734,VALID,0,VALID,100,VALID,-0.0849042,VALID,19.1514,VALID,208,VALID,0.608445,
2004-12-19, 03:11:00,VALID,915.725,VALID,0,VALID,100,VALID,-0.101885,VALID,19.148,VALID,215,VALID,0.540737,
2004-12-19, 03:12:00,VALID,915.726,VALID,0,VALID,100,VALID,-0.0849042,VALID,19.1547,VALID,222,VALID,0.379687,
2004-12-19, 03:13:00,VALID,915.719,VALID,0,VALID,100,VALID,-0.101885,VALID,19.1646,VALID,221,VALID,0.143674,
2004-12-19, 03:14:00,VALID,915.713,VALID,0,VALID,100,VALID,-0.0509425,VALID,19.1644,VALID,221,VALID,0.352679,
2004-12-19, 03:15:00,VALID,915.71,VALID,0,VALID,100,VALID,-0.101885,VALID,19.174,VALID,226,VALID,0.432351,
2004-12-19, 03:16:00,VALID,915.701,VALID,0,VALID,100,VALID,-0.0849042,VALID,19.1678,VALID,219,VALID,0.303354,
2004-12-19, 03:17:00,VALID,915.711,VALID,0,VALID,100,VALID,-0.0849042,VALID,19.1745,VALID,229,VALID,0.189918,
2004-12-19, 03:18:00,VALID,915.714,VALID,0,VALID,100,VALID,-0.0169808,VALID,19.1793,VALID,229,VALID,0,
2004-12-19, 03:19:00,VALID,915.719,VALID,0,VALID,100,VALID,0.0169808,VALID,19.1892,VALID,229,VALID,0,
2004-12-19, 03:20:00,VALID,915.721,VALID,0,VALID,100,VALID,0.0849042,VALID,19.1823,VALID,229,VALID,0,
2004-12-19, 03:21:00,VALID,915.723,VALID,0,VALID,100,VALID,0.0169808,VALID,19.1823,VALID,229,VALID,0,
2004-12-19, 03:22:00,VALID,915.727,VALID,0,VALID,100,VALID,0.0339617,VALID,19.1691,VALID,11,VALID,0.693452,
2004-12-19, 03:23:00,VALID,915.727,VALID,0,VALID,100,VALID,0.0169808,VALID,19.1535,VALID,41,VALID,0.979226,
2004-12-19, 03:24:00,VALID,915.713,VALID,0,VALID,100,VALID,0,VALID,19.1207,VALID,42,VALID,0.92721,
2004-12-19, 03:25:00,VALID,915.71,VALID,0,VALID,100,VALID,0.0509425,VALID,19.1085,VALID,42,VALID,0.984375,
2004-12-19, 03:26:00,VALID,915.698,VALID,0,VALID,100,VALID,0.0509425,VALID,19.0953,VALID,38,VALID,1.01007,
2004-12-19, 03:27:00,VALID,915.694,VALID,0,VALID,100,VALID,0.0509425,VALID,19.0817,VALID,42,VALID,0.74184,
2004-12-19, 03:28:00,VALID,915.686,VALID,0,VALID,100,VALID,0.0169808,VALID,19.0886,VALID,39,VALID,0.455915,
2004-12-19, 03:29:00,VALID,915.679,VALID,0,VALID,100,VALID,0.0509425,VALID,19.0983,VALID,35,VALID,0.390244,
2004-12-19, 03:30:00,VALID,915.681,VALID,0,VALID,100,VALID,0,VALID,19.0921,VALID,35,VALID,0.3254,
2004-12-19, 03:31:00,VALID,915.675,VALID,0,VALID,100,VALID,0.0339617,VALID,19.1087,VALID,60,VALID,0.431538,
2004-12-19, 03:32:00,VALID,915.663,VALID,0,VALID,100,VALID,0,VALID,19.1082,VALID,79,VALID,0.325521,
2004-12-19, 03:33:00,VALID,915.659,VALID,0,VALID,100,VALID,0,VALID,19.1212,VALID,84,VALID,0.46548,
2004-12-19, 03:34:00,VALID,915.656,VALID,0,VALID,100,VALID,0.0679233,VALID,19.1179,VALID,90,VALID,0.251116,
2004-12-19, 03:35:00,VALID,915.662,VALID,0,VALID,100,VALID,0,VALID,19.1309,VALID,102,VALID,0.449219,
2004-12-19, 03:36:00,VALID,915.67,VALID,0,VALID,100,VALID,0,VALID,19.1435,VALID,93,VALID,0.610137,
2004-12-19, 03:37:00,VALID,915.659,VALID,0,VALID,100,VALID,0.0339617,VALID,19.1438,VALID,90,VALID,0.569404,
2004-12-19, 03:38:00,VALID,915.671,VALID,0,VALID,100,VALID,0.0849042,VALID,19.1502,VALID,91,VALID,0.646484,
2004-12-19, 03:39:00,VALID,915.669,VALID,0,VALID,100,VALID,0.0339617,VALID,19.153,VALID,104,VALID,0.697173,
2004-12-19, 03:40:00,VALID,915.671,VALID,0,VALID,100,VALID,0.0169808,VALID,19.1629,VALID,81,VALID,0.659647,
2004-12-19, 03:41:00,VALID,915.673,VALID,0,VALID,100,VALID,0.0169808,VALID,19.1723,VALID,107,VALID,0.939098,